www.pogodaiklimat.ru

Погода и климат >> Архив погоды >> Индия >> Мадхья-Прадеш >> Сатна


ПОГОДА в Сатне

  • Прогноз погоды в Сатне
  • Монитор погоды в Сатне

АРХИВ ПОГОДЫ в Сатне

Время (UTC), дата Ветер
(напр.,м/с)
 
Видим.   Явления Облачность Т
(С)
Тd
(С)
f
(%)
Тe
(С)
Тes
(С)
Комфортность P
(гПа)
Po
(гПа)
Тmin
(С)
Tmax
(С)
R
(мм)
R24
(мм)
S
(см)
18 16.01 штиль 0 4000 м ясно +11.4 +6.3 71 +11 +11 1018.2 1018.0
21 16.01 штиль 0 4000 м ясно +9.0 +4.5 73 +8 +8 1016.5 1017.0
00 17.01 штиль 0 4000 м мгла ясно +7.4 +4.7 83 +7 +7 1016.4 1016.0
03 17.01 штиль 0 4000 м мгла ясно +10.4 +2.5 58 +10 +14 1018.1 1018.0 +6.3
06 17.01 ЮВ 1 4000 м мгла ясно +22.0 +3.3 29 +22 +35 комфорт 1016.5 1017.0
09 17.01 ЮВ 1 4000 м ясно +24.8 +1.7 22 +24 +32 комфорт 1013.0 1013.0
12 17.01 штиль 0 4000 м ясно +21.8 +6.0 36 +22 +22 комфорт 1013.3 1013.0 +25.4
15 17.01 штиль 0 4000 м ясно +14.4 +4.5 51 +14 +14 1015.9 1016.0
18 17.01 штиль 0 4000 м ясно +11.6 +5.6 67 +11 +11 1016.7 1017.0
21 17.01 штиль 0 4000 м ясно +10.0 +4.7 70 +9 +9 1016.5 1017.0
00 18.01 штиль 0 4000 м мгла ясно +8.2 +4.1 75 +8 +8 1017.1 1017.0
03 18.01 штиль 0 4000 м мгла ясно +10.4 +3.6 63 +10 +14 1019.2 1019.0 +6.9
06 18.01 ЮЗ 1 4000 м мгла ясно +20.4 +4.9 36 +23 +36 комфорт 1017.7 1018.0
09 18.01 ЮЗ 1 4000 м ясно +24.0 +3.6 26 +23 +31 комфорт 1014.3 1014.0
12 18.01 штиль 0 4000 м ясно +21.0 +5.3 36 +21 +21 комфорт 1014.2 1014.0 +24.5
15 18.01 штиль 0 4000 м ясно +14.6 +5.8 56 +14 +14 1016.9 1017.0
18 18.01 штиль 0 4000 м ясно +11.4 +6.3 71 +11 +11 1017.8 1018.0
21 18.01 штиль 0 4000 м ясно +9.4 +5.0 74 +9 +9 1017.3 1017.0
00 19.01 штиль 0 4000 м ясно +7.8 +5.1 83 +7 +7 1017.6 1018.0
03 19.01 штиль 0 4000 м мгла ясно +10.0 +5.7 75 +9 +13 1019.7 1020.0 +6.3
06 19.01 ЮВ 1 4000 м мгла ясно +20.6 +5.2 36 +23 +37 комфорт 1018.3 1018.0
09 19.01 ЮЗ 1 4000 м ясно +25.0 +4.2 26 +24 +32 комфорт 1015.2 1015.0
12 19.01 штиль 0 4000 м ясно +23.0 +7.8 38 +24 +24 комфорт 1015.3 1015.0 +25.7
15 19.01 штиль 0 4000 м ясно +14.6 +4.8 52 +14 +14 1017.6 1018.0
18 19.01 штиль 0 4000 м ясно +12.4 +5.6 63 +12 +12 1017.8 1018.0
21 19.01 штиль 0 4000 м ясно +10.4 +5.1 70 +10 +10 1017.2 1017.0
00 20.01 штиль 0 4000 м ясно +8.8 +4.8 76 +8 +8 1018.1 1018.0
03 20.01 штиль 0 4000 м мгла ясно +11.0 +4.3 63 +11 +15 1019.8 1020.0 +7.9
06 20.01 ЮЗ 1 4000 м ясно +24.0 +4.3 28 +24 +38 комфорт 1017.9 1018.0
09 20.01 СЗ 1 4000 м ясно +27.0 +2.6 21 +25 +33 комфорт 1014.4 1014.0
12 20.01 штиль 0 4000 м ясно +25.0 +8.2 34 +25 +25 комфорт 1013.8 1014.0 +28.6
15 20.01 штиль 0 4000 м ясно +17.6 +8.7 56 +18 +18 1016.0 1016.0
18 20.01 штиль 0 4000 м ясно +15.0 +8.3 64 +15 +15 1016.3 1016.0
21 20.01 штиль 0 4000 м ясно +13.0 +6.3 64 +13 +13 1015.3 1015.0
00 21.01 штиль 0 4000 м ясно +11.4 +6.3 71 +11 +11 1015.1 1015.0
03 21.01 штиль 0 4000 м мгла ясно +13.0 +7.7 70 +13 +17 1017.5 1018.0 +10.0
06 21.01 В 1 4000 м ясно +26.6 +6.4 28 +26 +39 жарко 1015.5 1016.0
09 21.01 ЮЗ 2 4000 м ясно +30.4 +6.6 22 +29 +36 жарко 1011.0 1011.0
12 21.01 штиль 0 4000 м ясно +27.0 +7.7 29 +27 +27 жарко 1010.1 1010.0 +30.9
15 21.01 штиль 0 4000 м ясно +19.0 +9.6 54 +20 +20 1012.1 1012.0
18 21.01 штиль 0 4000 м ясно +17.0 +8.4 57 +17 +17 1012.6 1013.0
21 21.01 штиль 0 4000 м ясно +16.4 +8.1 58 +16 +16 1011.3 1011.0
00 22.01 штиль 0 4000 м ясно +15.8 +7.4 57 +16 +16 1011.5 1012.0
03 22.01 штиль 0 4000 м мгла 3/1 750 м
[Sc Ac trans]
+15.0 +7.8 62 +15 +18 1014.6 1015.0 +13.6
06 22.01 штиль 0 4000 м ясно +26.6 +10.2 36 +27 +42 жарко 1012.8 1013.0
09 22.01 ЮВ 2 4000 м 5/0
[Ci fib]
+29.2 +12.6 36 +30 +37 жарко 1009.8 1010.0
12 22.01 штиль 0 4000 м 9/4 750 м
[Sc Ac trans]
+26.2 +14.1 47 +28 +28 жарко 1010.7 1011.0 +29.4
15 22.01 штиль 0 4000 м 8/4 750 м
[Sc Ac trans]
+21.6 +11.6 53 +24 +24 комфорт 1012.8 1013.0
18 22.01 штиль 0 4000 м в посл. час дождь 9/5 750 м
[Sc Ac trans]
+19.6 +13.3 67 +21 +21 комфорт 1014.0 1014.0 0.0
21 22.01 штиль 0 4000 м 5/0
[Ac trans]
+17.0 +12.7 76 +17 +17 1013.3 1013.0 0.0
00 23.01 штиль 0 4000 м в посл. час гроза {дождь} 8/4 750 м
[Cb cap Ac trans]
+15.6 +13.5 87 +15 +15 1013.5 1014.0 3
03 23.01 штиль 0 2000 м дымка {туман} 9/5 750 м
[Sc Ac trans]
+16.6 +14.5 87 +16 +18 1015.9 1016.0 +14.7 3
06 23.01 СВ 1 4000 м мгла {туман} 9/5 750 м
[Sc Ac trans]
+21.4 +15.0 67 +25 +28 комфорт 1015.6 1016.0
09 23.01 СВ 1 4000 м мгла 10/6 750 м
[Sc Ac trans]
+22.6 +16.0 66 +27 +28 душно 1013.3 1013.0
12 23.01 СВ 1 4000 м мгла 9/5 750 м
[Sc Ac trans]
+20.4 +15.4 73 +25 +25 комфорт 1013.6 1014.0 +23.3

 

Местоположение метеостанции Сатна (Мадхья-Прадеш, Индия): широта 24.57 долгота 80.83 высота над уровнем моря 316 м.

В архиве по умолчанию представлена погода в Сатне за последнюю неделю. Архивные данные за месяц целиком и за предыдущие месяцы, начиная с января 2011 года, Вы можете получить, выбрав интересующий диапазон дат из раскрывающегося списка и нажав кнопку "Ввод!".


*Определитесь, кто Вы:
робот инопланетянин человек

Внимание! Время в таблицах - всемирное. Для получения местного времени необходимо прибавить поправку, которая равна 5.5 ч.

Смотрите также архив погоды в соседних городах и на ближайших метеорологических станциях:

Погода в Реве (Мадхья-Прадеш, Индия) (48 км)
Погода в Кхаджурахо (Мадхья-Прадеш, Индия) (103 км)
Погода в Сидхи (Мадхья-Прадеш, Индия) (107 км)
Погода в Банде (Уттар-Прадеш, Индия) (110 км)
Погода в Умарии (Мадхья-Прадеш, Индия) (116 км)
Погода в Аллахабаде (Уттар-Прадеш, Индия) (133 км)
Погода в Ноугонге (Мадхья-Прадеш, Индия) (150 км)
Погода в Дамо (Мадхья-Прадеш, Индия) (162 км)
Погода в Хамирпуре (Уттар-Прадеш, Индия) (168 км)
Погода в Джабалпере (Мадхья-Прадеш, Индия) (177 км)

Пояснения к столбцам:

Ветер - указаны скорость ветра в м/с - средняя за 10 мин, порывы в срок и между сроками (в фигурных скобках) и направление, откуда дует ветер: С - северный, СВ - северо-восточный, В - восточный, ЮВ - юго-восточный, Ю - южный, ЮЗ - юго-западный, З - западный, СЗ - северо-западный.
Видимость - горизонтальная дальность видимости в метрах или километрах. При видимости от 1 до 10 км при отсутствии осадков обычно наблюдается дымка, при ухудшении видимости до 1 км и менее - туман. В сухую погоду видимость может ухудшаться дымом, пылью или мглою.
Явления - указаны атмосферные явления, наблюдавшиеся в срок или в последний час перед сроком; фигурными скобками обозначены явления, наблюдавшиеся между сроками (за 1-3 часа до срока); квадратными скобками обозначены град или гололедные отложения с указанием их диаметра в мм.
Облачность - указаны через наклонную черту общая и нижняя облачность в баллах и высота нижней границы облаков в метрах; квадратными скобками обозначены формы облаков: Ci - перистые, Cs - перисто-слоистые, Cc - перисто-кучевые, Ac - высококучевые, As - высокослоистые, Sc - слоисто-кучевые, Ns - слоисто-дождевые, Cu - кучевые, Cb - кучево-дождевые. Подробнее классификацию облаков см. в Атласе облаков (PDF).
T - Температура воздуха - температура, измеренная на высоте 2 м над землей.
Td - Температура точки росы - температура, при понижении до которой содержащийся в воздухе водяной пар достигнет насыщения.
f - Относительная влажность воздуха - влажноcть воздуха, измеренная на высоте 2 м над землей.
Te - Эффективная температура - температура, которую ощущает одетый по сезону человек в тени. Характеристика душности погоды. При расчете учитывается влияние влажности воздуха и скорости ветра на теплоощущения человека.
Tes - Эффективная температура на солнце - температура, которую ощущает человек, с поправкой на солнечный нагрев. Характеристика знойности погоды. Зависит от высоты солнца над горизонтом, облачности и скорости ветра. Ночью, в пасмурную погоду, а также при ветре 12 м/с и более поправка равна нулю.
P - Атмосферное давление - приведенное к уровню моря атмосферное давление.
Po - Атмосферное давление - измеренное на уровне метеостанции атмосферное давление.
Tmin - Минимальная температура - минимум температуры воздуха на высоте 2 м над землей.
Tmax - Максимальная температура - максимум температуры воздуха на высоте 2 м над землей.
R - Количество осадков - Количество выпавших осадков за период времени, мм. При наведении курсора мыши на число - период времени, за который выпало указанное количество осадков.
R24 - Количество осадков - Количество выпавших осадков за 24 часа, мм.
S - Снежный покров - Высота снежного покрова, см. При наведении курсора мыши на число - состояние снежного покрова и степень покрытия местности в баллах.